This is the latest recevied weather packets stored in our database for station/object N8HON. If no packets are shown the sender has not sent any weather packets the latest 10 day(s).
| Time | Temp. | Humidity | Pressure | Rain* | Wind** | Luminosity | Snow |
|---|---|---|---|---|---|---|---|
| 1777800924 | 2.22° C | 66% | 1013.7 hPa | 0 mm | - | 0 W/m² | - |
| 1777800621 | 2.22° C | 67% | 1013.6 hPa | 0 mm | - | 0 W/m² | - |
| 1777800317 | 2.22° C | 68% | 1013.4 hPa | 0 mm | - | 0 W/m² | - |
| 1777800013 | 2.78° C | 67% | 1013.6 hPa | 0 mm | - | 0 W/m² | - |
| 1777799708 | 2.78° C | 66% | 1013.4 hPa | 0 mm | - | 0 W/m² | - |
| 1777799406 | 2.78° C | 68% | 1013.7 hPa | 0 mm | - | 0 W/m² | - |
| 1777799101 | 2.78° C | 66% | 1013.6 hPa | 0 mm | - | 0 W/m² | - |
| 1777798797 | 2.78° C | 68% | 1013.4 hPa | 0 mm | - | 0 W/m² | - |
| 1777798494 | 2.78° C | 67% | 1013.6 hPa | 0 mm | - | 0 W/m² | - |
| 1777798191 | 2.78° C | 66% | 1013.3 hPa | 0 mm | - | 0 W/m² | - |
| 1777797888 | 2.78° C | 65% | 1013.3 hPa | 0 mm | - | 0 W/m² | - |
| 1777797586 | 3.33° C | 66% | 1013.4 hPa | 0 mm | - | 0 W/m² | - |
| 1777797283 | 3.33° C | 64% | 1013.3 hPa | 0 mm | - | 0 W/m² | - |
| 1777796979 | 3.33° C | 62% | 1013.3 hPa | 0 mm | - | 0 W/m² | - |
| 1777796677 | 3.33° C | 63% | 1013.2 hPa | 0 mm | - | 0 W/m² | - |
| 1777796373 | 3.33° C | 64% | 1013.1 hPa | 0 mm | - | 0 W/m² | - |
| 1777796068 | 3.33° C | 66% | 1013.1 hPa | 0 mm | - | 0 W/m² | - |
| 1777795765 | 3.33° C | 63% | 1013.1 hPa | 0 mm | - | 0 W/m² | - |
| 1777795462 | 3.33° C | 68% | 1013 hPa | 0 mm | - | 0 W/m² | - |
| 1777795158 | 3.33° C | 67% | 1013.2 hPa | 0 mm | - | 0 W/m² | - |
| 1777794854 | 3.89° C | 66% | 1013.2 hPa | 0 mm | - | 0 W/m² | - |
| 1777794551 | 3.33° C | 65% | 1013 hPa | 0 mm | - | 0 W/m² | - |
| 1777794246 | 3.33° C | 65% | 1013.1 hPa | 0 mm | - | 0 W/m² | - |
| 1777793943 | 3.89° C | 65% | 1012.8 hPa | 0 mm | - | 0 W/m² | - |
| 1777793640 | 3.89° C | 65% | 1012.9 hPa | 0 mm | - | 0 W/m² | - |
* Rain latest hour (hover to see other rain measurements)
** Current wind speed in m/s (hover to see current wind gust speed)